Regional Weather Roundup
Issued by NWS Little Rock, AR

Home | Current Version | Previous Version | Text Only | Print | Product List | Glossary On
Versions: 1 2 3 4 5 6 7 8 9 10 11 12 13 14 15 16 17 18 19 20 21 22 23 24 25 26 27 28 29 30 31
000
ASUS44 KLZK 211605
RWRLZK

WEATHER ROUNDUP FOR ARKANSAS
NATIONAL WEATHER SERVICE LITTLE ROCK AR
1000 AM CST TUE FEB 21 2017

NOTE: "FAIR" INDICATES FEW OR NO CLOUDS BELOW 12,000 FEET WITH NO
SIGNIFICANT WEATHER AND/OR OBSTRUCTIONS TO VISIBILITY.

ARZ001-003-010-029-211700-
NORTHWEST ARKANSAS

CITY           SKY/WX    TMP DP  RH WIND       PRES   REMARKS
FAYETTEVILLE   CLOUDY    56  56 100 N6        29.93R
FORT SMITH     CLOUDY    60  56  86 W6        29.90S
HARRISON       CLOUDY    56  56 100 NW7       29.90S
BENTONVILLE    CLOUDY    57  54  88 N8        29.94S
ROGERS         CLOUDY    57  53  86 N6        29.94R
SILOAM SPGS    CLOUDY    57  54  88 N8        29.93S
HIGHFILL       CLOUDY    59  55  87 N10       29.93S
SPRINGDALE     CLOUDY    59  55  88 N9        29.94S
$$

ARZ004-005-016-211700-
NORTH CENTRAL ARKANSAS

CITY           SKY/WX    TMP DP  RH WIND       PRES   REMARKS
BATESVILLE     CLOUDY    57  55  94 NE8       29.87F
FLIPPIN        CLOUDY    57  52  82 N6        29.87R
MTN HOME       RAIN      56  56 100 CALM      29.89R FOG
$$

ARZ040-041-211700-
WEST CENTRAL ARKANSAS

CITY           SKY/WX    TMP DP  RH WIND       PRES   REMARKS
MENA           CLOUDY    61  59  94 CALM      29.90R
MOUNT IDA      RAIN      59  57  93 NW3       29.85S FOG
$$

ARZ009-017-025-026-028-211700-
NORTHEAST ARKANSAS

CITY           SKY/WX    TMP DP  RH WIND       PRES   REMARKS
CORNING        CLOUDY    59  57  94 E8        29.91R
JONESBORO      CLOUDY    59  57  93 E5        29.87R FOG
NEWPORT        CLOUDY    59  58  96 NE10      29.85  FOG
WALNUT RIDGE   CLOUDY    57  54  88 NE6       29.88R
BLYTHEVILLE    CLOUDY    60  58  92 S6        29.90R
NW BLYTHEVILLE CLOUDY    61  57  88 S6        29.89R
$$

ARZ022-023-033-042-044-211700-
CENTRAL ARKANSAS

CITY           SKY/WX    TMP DP  RH WIND       PRES   REMARKS
LITTLE ROCK    CLOUDY    60  60 100 W5        29.85S
N LITTLE ROCK    N/A     59  58  96 CALM      29.85F
JACKSONVILLE   CLOUDY    61  60  99 W5        29.84S
SEARCY         CLOUDY    61  61 100 SW5       29.86F
HOT SPRINGS    LGT RAIN  59  59 100 W5        29.86S
RUSSELLVILLE   CLOUDY    60  58  92 NW7       29.86S
CLINTON        CLOUDY    63  57  82 CALM      29.85F
$$

ARZ036-211700-
EAST ARKANSAS

CITY           SKY/WX    TMP DP  RH WIND       PRES   REMARKS
WEST MEMPHIS   CLOUDY    61  61 100 S12       29.87S
$$

ARZ050-053-066-070-073-211700-
SOUTHWEST ARKANSAS

CITY           SKY/WX    TMP DP  RH WIND       PRES   REMARKS
ARKADELPHIA      N/A    N/A N/A N/A MISG        N/A
CAMDEN         CLOUDY    59  55  88 W9        29.89S FOG
TEXARKANA      CLOUDY    57  56  96 W6        29.92S
EL DORADO      CLOUDY    60  57  89 SW9       29.91R
DE QUEEN       LGT RAIN  59  59 100 W7        29.90R
$$

ARZ056-057-069-211700-
SOUTHEAST ARKANSAS

CITY           SKY/WX    TMP DP  RH WIND       PRES   REMARKS
PINE BLUFF     LGT RAIN  59  57  93 SW7       29.87R FOG
STUTTGART      CLOUDY    63  54  72 SW9       29.87S
MONTICELLO     CLOUDY    60  57  89 SW6       29.89S

$$






USA.gov is the U.S. government's official web portal to all federal, state and local government web resources and services.